sat.trackr.live / text

‹ back to catalog

STARLINK-5079

NORAD 53999 · 2022-125AM

PAYLOAD ACTIVE UNKNOWN

§ Identity

Operator
Country
US
Launch date
2022-10-05
Launch site
AFWTR
Launch vehicle
Mass (kg)
RCS (m²)

Purposes: comms

External: N2YO · Heavens-Above · Gunter

§ Orbital elements

Epoch: 2026-05-24T22:21:38.785824Z

Period
95.44 min
Inclination
53.2161°
Eccentricity
0.0001242
Mean motion
15.08835529 rev/d
Perigee alt
538.9 km
Apogee alt
540.6 km
Semi-major
6,917.9 km
B*
-6.4975e-6
RAAN
231.7737°
Arg perigee
85.3625°
Mean anomaly
274.7509°
Rev number
20,097

§ Raw data

STARLINK-50791 53999U 22125AM  26144.93169891 -.00000391  00000+0 -64975-5 0  99902 53999  53.2161 231.7737 0001242  85.3625 274.7509 15.08835529200971

JSON: /api/v1/satellites/53999 · /tle

For live sub-satellite position, see the globe view (requires WebGL).

§ Visibility from observer

Set your observer location to see the next 7 days of passes ≥ 10°. The values pass through the URL so the page stays shareable.

No JS? Fill the form by hand. The geolocation button needs JavaScript.